DW3693 Weather Reports


Display with metric or nautical units.
time (UTC)temp
F
wind
direction
speed
MPH
gust
MPH
rain 1hr
in
rain 24hr
in
rain mn
in
humidity
%
barometer
mb
20260506120016 58 293 3.0 10.0 0.00 0.00 0.00 77 1016.5
20260506115018 59 293 3.0 11.0 0.00 0.00 0.00 78 1016.2
20260506114016 59 270 4.0 12.0 0.00 0.00 0.00 77 1016.3
20260506113036 59 270 4.0 13.0 0.00 0.00 0.00 77 1016.2
20260506112017 59 270 4.0 10.0 0.00 0.00 0.00 77 1016.2
20260506111016 59 248 5.0 13.0 0.00 0.00 0.00 77 1016.1
20260506110016 58 225 3.0 10.0 0.00 0.00 0.00 77 1016.1
20260506105016 59 293 2.0 7.0 0.00 0.00 0.00 76 1015.9
20260506104016 59 270 3.0 11.0 0.00 0.00 0.00 76 1015.8
20260506103015 59 315 3.0 10.0 0.00 0.00 0.00 75 1015.7
20260506102015 59 270 5.0 14.0 0.00 0.00 0.00 76 1015.7
20260506101015 59 293 3.0 7.0 0.00 0.00 0.00 76 1015.6
20260506100017 59 270 4.0 10.0 0.00 0.00 0.00 77 1015.6
20260506095037 59 270 5.0 11.0 0.00 0.00 0.00 77 1015.6
20260506094016 59 270 7.0 18.0 0.00 0.00 0.00 77 1015.4
20260506093015 59 270 4.0 11.0 0.00 0.00 0.00 77 1015.3
20260506092055 59 293 6.0 18.0 0.00 0.00 0.00 77 1015.3
20260506091015 59 270 5.0 26.0 0.00 0.00 0.00 76 1015.3
20260506090016 59 270 5.0 15.0 0.00 0.00 0.00 76 1015.2
20260506085036 59 270 5.0 15.0 0.00 0.00 0.00 76 1014.9
20260506084015 60 270 8.0 18.0 0.00 0.00 0.00 76 1014.8
20260506083036 59 248 6.0 15.0 0.00 0.00 0.00 76 1014.8
20260506082037 59 270 5.0 11.0 0.00 0.00 0.00 76 1014.7
20260506081038 59 158 3.0 8.0 0.00 0.00 0.00 77 1014.9
20260506073017 59 270 5.0 19.0 0.00 0.00 0.00 77 1014.7
20260506072017 59 293 3.0 7.0 0.00 0.00 0.00 77 1014.8
20260506071017 59 315 3.0 9.0 0.00 0.00 0.00 78 1014.6
20260506062017 59 180 2.0 6.0 0.00 0.00 0.00 77 1014.3
20260506061018 59 203 2.0 10.0 0.00 0.00 0.00 78 1014.3
20260506051016 59 113 2.0 7.0 0.00 0.00 0.00 77 1013.7
20260506045017 59 180 2.0 8.0 0.00 0.00 0.00 77 1013.4
20260506044016 59 270 3.0 13.0 0.00 0.00 0.00 77 1013.5
20260506043017 59 248 2.0 9.0 0.00 0.00 0.00 77 1013.4
20260506042016 59 270 2.0 15.0 0.00 0.00 0.00 76 1013.2
20260506041017 59 135 3.0 7.0 0.00 0.00 0.00 76 1013.3
20260506040017 59 135 2.0 8.0 0.00 0.00 0.00 76 1013.1
20260506035017 59 135 2.0 8.0 0.00 0.00 0.00 76 1013.1
20260506034018 60 135 2.0 6.0 0.00 0.00 0.00 75 1012.7
20260506033016 60 180 3.0 10.0 0.00 0.00 0.00 75 1012.5
20260506032017 60 158 2.0 8.0 0.00 0.00 0.00 75 1012.6
20260506031018 60 293 2.0 5.0 0.00 0.00 0.00 74 1012.5
20260506030036 61 270 4.0 15.0 0.00 0.00 0.00 73 1012.3
20260506025037 61 270 3.0 7.0 0.00 0.00 0.00 72 1012.1
20260506024017 62 270 2.0 11.0 0.00 0.00 0.00 72 1012.1
20260506023016 62 293 4.0 7.0 0.00 0.00 0.00 71 1012.0
20260506022036 62 158 3.0 13.0 0.00 0.00 0.00 71 1011.9
20260506021016 63 270 5.0 12.0 0.00 0.00 0.00 69 1011.8
20260506020016 63 293 5.0 12.0 0.00 0.00 0.00 68 1011.7
20260506015016 64 270 4.0 13.0 0.00 0.00 0.00 68 1011.5
20260506014036 64 180 5.0 15.0 0.00 0.00 0.00 67 1011.5
20260506013016 64 293 5.0 11.0 0.00 0.00 0.00 67 1011.3
20260506012018 65 248 4.0 18.0 0.00 0.00 0.00 66 1011.4
20260506011017 65 293 5.0 14.0 0.00 0.00 0.00 66 1011.2
20260506010017 65 248 6.0 17.0 0.00 0.00 0.00 65 1011.0
20260506005057 65 293 5.0 13.0 0.00 0.00 0.00 66 1011.1
20260506004016 66 270 5.0 17.0 0.00 0.00 0.00 65 1011.0
20260506003016 66 270 6.0 18.0 0.00 0.00 0.00 65 1011.0
20260506002016 66 270 8.0 24.0 0.00 0.00 0.00 64 1011.0
20260506001016 67 248 4.0 15.0 0.00 0.00 0.00 64 1011.0
20260506000016 67 270 5.0 17.0 0.00 0.00 0.00 63 1011.2
20260505235016 67 293 5.0 16.0 0.00 0.00 0.00 64 1011.2
20260505234016 67 248 7.0 23.0 0.00 0.00 0.00 62 1011.2
20260505233016 68 270 6.0 12.0 0.00 0.00 0.00 61 1011.4
20260505232017 68 270 5.0 16.0 0.00 0.00 0.00 63 1011.5
20260505231016 68 270 8.0 18.0 0.00 0.00 0.00 61 1011.5
20260505230016 68 270 7.0 15.0 0.00 0.00 0.00 61 1011.7
20260505225016 68 293 5.0 13.0 0.00 0.00 0.00 61 1011.6
20260505224016 68 315 5.0 15.0 0.00 0.00 0.00 62 1011.9
20260505223017 69 338 4.0 14.0 0.00 0.00 0.00 64 1012.1
20260505222015 68 248 5.0 23.0 0.00 0.00 0.00 60 1012.0
20260505221015 68 270 9.0 18.0 0.00 0.00 0.00 61 1012.1
20260505220015 68 248 6.0 17.0 0.00 0.00 0.00 63 1012.2
20260505215015 68 270 6.0 18.0 0.00 0.00 0.00 63 1012.3
20260505214016 68 270 6.0 15.0 0.00 0.00 0.00 61 1012.3
20260505213015 67 248 7.0 18.0 0.00 0.00 0.00 62 1012.2
20260505212016 68 248 6.0 15.0 0.00 0.00 0.00 63 1012.6
20260505211016 68 270 6.0 13.0 0.00 0.00 0.00 61 1012.5
20260505210035 68 270 6.0 18.0 0.00 0.00 0.00 63 1012.5
20260505205035 67 270 6.0 16.0 0.00 0.00 0.00 61 1012.6
20260505204016 67 270 7.0 18.0 0.00 0.00 0.00 62 1012.8
20260505203017 67 293 7.0 21.0 0.00 0.00 0.00 62 1012.9
20260505202017 67 293 5.0 14.0 0.00 0.00 0.00 63 1013.0
20260505201017 67 270 7.0 16.0 0.00 0.00 0.00 62 1012.9
20260505200017 66 270 7.0 15.0 0.00 0.00 0.00 62 1013.0
20260505195017 66 248 6.0 13.0 0.00 0.00 0.00 63 1013.1
20260505194016 66 270 6.0 19.0 0.00 0.00 0.00 65 1013.1
20260505193018 65 270 7.0 19.0 0.00 0.00 0.00 64 1013.2
20260505192017 65 270 8.0 20.0 0.00 0.00 0.00 64 1013.4
20260505191019 65 270 6.0 13.0 0.00 0.00 0.00 66 1013.2
20260505190017 65 270 6.0 14.0 0.00 0.00 0.00 64 1013.4
20260505185015 65 248 6.0 18.0 0.00 0.00 0.00 68 1013.4
20260505184017 65 293 6.0 23.0 0.00 0.00 0.00 65 1013.5
20260505183017 64 270 7.0 19.0 0.00 0.00 0.00 66 1013.6
20260505182017 64 270 5.0 13.0 0.00 0.00 0.00 67 1013.5
20260505181017 64 270 6.0 18.0 0.00 0.00 0.00 69 1013.6
20260505180017 63 270 8.0 17.0 0.00 0.00 0.00 68 1013.6
20260505175017 63 270 7.0 16.0 0.00 0.00 0.00 70 1013.5
20260505174016 63 248 6.0 15.0 0.00 0.00 0.00 68 1013.6
20260505173017 62 270 5.0 17.0 0.00 0.00 0.00 70 1013.6
20260505172017 62 270 8.0 17.0 0.00 0.00 0.00 72 1013.4
20260505171016 61 293 6.0 21.0 0.00 0.00 0.00 72 1013.5
20260505170017 61 270 6.0 13.0 0.00 0.00 0.00 72 1013.5
20260505165018 61 248 5.0 15.0 0.00 0.00 0.00 73 1013.5
20260505164017 61 248 4.0 12.0 0.00 0.00 0.00 73 1013.5
20260505163017 60 270 8.0 24.0 0.00 0.00 0.00 73 1013.3
20260505162037 60 270 5.0 14.0 0.00 0.00 0.00 74 1013.3
20260505161019 60 270 5.0 17.0 0.00 0.00 0.00 74 1013.3
20260505153017 59 270 4.0 14.0 0.00 0.00 0.00 77 1013.2
20260505152036 59 248 5.0 11.0 0.00 0.00 0.00 77 1013.1
20260505151016 58 293 4.0 17.0 0.00 0.00 0.00 78 1013.0
20260505125016 55 270 3.0 8.0 0.00 0.00 0.00 83 1012.2
20260505124016 55 180 4.0 13.0 0.00 0.00 0.00 83 1012.2
20260505123016 56 180 4.0 11.0 0.00 0.00 0.00 83 1012.3
20260505122016 56 248 4.0 13.0 0.00 0.00 0.00 83 1012.4
20260505121016 56 203 3.0 9.0 0.00 0.00 0.00 82 1012.2